Time,TemperatureF,DewpointF,PressureIn,WindDirection,WindDirectionDegrees,WindSpeedMPH,WindSpeedGustMPH,Humidity,HourlyPrecipIn,Conditions,Clouds,dailyrainin,SoftwareType,DateUTC
2013-02-17 00:03:00,42.4,36.0,30.08,NE,52,0.0,0.0,77,0.00,,,0.00,weatherlink.com 1.10,2013-02-16 23:03:00,
2013-02-17 00:18:00,42.5,36.0,30.09,ENE,58,0.0,1.0,77,0.00,,,0.00,weatherlink.com 1.10,2013-02-16 23:18:00,
2013-02-17 00:33:00,41.6,36.0,30.09,SSE,160,0.0,0.0,79,0.00,,,0.00,weatherlink.com 1.10,2013-02-16 23:33:00,
2013-02-17 00:48:00,41.5,35.0,30.09,SSE,160,0.0,0.0,79,0.00,,,0.00,weatherlink.com 1.10,2013-02-16 23:48:00,
2013-02-17 01:03:00,41.1,35.0,30.09,SSE,159,0.0,0.0,80,0.00,,,0.00,weatherlink.com 1.10,2013-02-17 00:03:00,
2013-02-17 01:18:00,40.8,35.0,30.09,SSE,159,0.0,0.0,80,0.00,,,0.00,weatherlink.com 1.10,2013-02-17 00:18:00,
2013-02-17 01:33:00,40.1,35.0,30.09,SSE,159,0.0,0.0,81,0.00,,,0.00,weatherlink.com 1.10,2013-02-17 00:33:00,
2013-02-17 01:49:00,39.2,35.0,30.09,SSE,167,0.0,0.0,83,0.00,,,0.00,weatherlink.com 1.10,2013-02-17 00:49:00,
2013-02-17 02:04:00,38.3,34.0,30.09,East,80,0.0,0.0,83,0.00,,,0.00,weatherlink.com 1.10,2013-02-17 01:04:00,
2013-02-17 02:19:00,37.9,34.0,30.09,SE,135,0.0,0.0,85,0.00,,,0.00,weatherlink.com 1.10,2013-02-17 01:19:00,
2013-02-17 02:34:00,37.7,34.0,30.08,ESE,110,0.0,1.0,86,0.00,,,0.00,weatherlink.com 1.10,2013-02-17 01:34:00,
2013-02-17 02:49:00,37.4,34.0,30.08,SE,145,0.0,0.0,87,0.00,,,0.00,weatherlink.com 1.10,2013-02-17 01:49:00,
2013-02-17 03:04:00,37.1,34.0,30.08,SSE,148,0.0,1.0,87,0.00,,,0.00,weatherlink.com 1.10,2013-02-17 02:04:00,
2013-02-17 03:19:00,36.7,33.0,30.08,SSE,156,0.0,0.0,87,0.00,,,0.00,weatherlink.com 1.10,2013-02-17 02:19:00,
2013-02-17 03:34:00,36.8,34.0,30.07,SSE,156,0.0,0.0,89,0.00,,,0.00,weatherlink.com 1.10,2013-02-17 02:34:00,
2013-02-17 03:49:00,37.0,34.0,30.07,SSE,156,0.0,0.0,88,0.00,,,0.00,weatherlink.com 1.10,2013-02-17 02:49:00,
2013-02-17 04:04:00,37.1,34.0,30.07,South,180,0.0,1.0,88,0.00,,,0.00,weatherlink.com 1.10,2013-02-17 03:04:00,
2013-02-17 04:19:00,37.3,34.0,30.07,South,180,0.0,0.0,87,0.00,,,0.00,weatherlink.com 1.10,2013-02-17 03:19:00,
2013-02-17 04:34:00,37.1,34.0,30.07,South,180,0.0,0.0,87,0.00,,,0.00,weatherlink.com 1.10,2013-02-17 03:34:00,
2013-02-17 04:49:00,37.9,34.0,30.07,ENE,57,0.0,1.0,87,0.00,,,0.00,weatherlink.com 1.10,2013-02-17 03:49:00,
2013-02-17 05:04:00,37.4,34.0,30.07,ENE,57,0.0,0.0,86,0.00,,,0.00,weatherlink.com 1.10,2013-02-17 04:04:00,
2013-02-17 05:19:00,38.1,35.0,30.07,NE,56,0.0,1.0,87,0.00,,,0.00,weatherlink.com 1.10,2013-02-17 04:19:00,
2013-02-17 05:34:00,38.7,35.0,30.07,ENE,57,0.0,0.0,85,0.00,,,0.00,weatherlink.com 1.10,2013-02-17 04:34:00,
2013-02-17 05:49:00,38.9,35.0,30.07,ENE,57,0.0,0.0,84,0.00,,,0.00,weatherlink.com 1.10,2013-02-17 04:49:00,
2013-02-17 06:04:00,39.0,35.0,30.07,ENE,57,0.0,0.0,84,0.00,,,0.00,weatherlink.com 1.10,2013-02-17 05:04:00,
2013-02-17 06:19:00,39.1,35.0,30.06,NE,53,0.0,0.0,84,0.00,,,0.00,weatherlink.com 1.10,2013-02-17 05:19:00,
2013-02-17 06:34:00,38.7,35.0,30.06,NE,53,0.0,0.0,85,0.00,,,0.00,weatherlink.com 1.10,2013-02-17 05:34:00,
2013-02-17 06:49:00,38.9,35.0,30.06,NE,53,0.0,0.0,85,0.00,,,0.00,weatherlink.com 1.10,2013-02-17 05:49:00,
2013-02-17 07:04:00,39.1,35.0,30.06,ENE,64,0.0,1.0,84,0.00,,,0.00,weatherlink.com 1.10,2013-02-17 06:04:00,
2013-02-17 07:19:00,39.1,35.0,30.06,ENE,64,0.0,0.0,84,0.00,,,0.00,weatherlink.com 1.10,2013-02-17 06:19:00,
2013-02-17 07:34:00,39.2,35.0,30.06,NE,54,0.0,1.0,84,0.00,,,0.00,weatherlink.com 1.10,2013-02-17 06:34:00,
2013-02-17 07:49:00,39.3,35.0,30.06,ENE,57,0.0,0.0,84,0.00,,,0.00,weatherlink.com 1.10,2013-02-17 06:49:00,
2013-02-17 08:04:00,39.2,35.0,30.07,South,175,0.0,0.0,85,0.00,,,0.00,weatherlink.com 1.10,2013-02-17 07:04:00,
2013-02-17 08:19:00,39.5,35.0,30.07,ENE,68,0.0,0.0,84,0.00,,,0.00,weatherlink.com 1.10,2013-02-17 07:19:00,
2013-02-17 08:34:00,39.9,36.0,30.06,ENE,65,0.0,1.0,84,0.00,,,0.00,weatherlink.com 1.10,2013-02-17 07:34:00,
2013-02-17 08:49:00,41.1,37.0,30.06,ENE,67,0.0,2.0,84,0.00,,,0.00,weatherlink.com 1.10,2013-02-17 07:49:00,
2013-02-17 09:04:00,42.0,37.0,30.06,ENE,70,0.0,2.0,81,0.00,,,0.00,weatherlink.com 1.10,2013-02-17 08:04:00,
2013-02-17 09:19:00,42.7,37.0,30.06,ENE,78,3.0,3.0,80,0.00,,,0.00,weatherlink.com 1.10,2013-02-17 08:19:00,
2013-02-17 09:34:00,43.3,38.0,30.06,ENE,73,0.0,3.0,80,0.00,,,0.00,weatherlink.com 1.10,2013-02-17 08:34:00,
2013-02-17 09:49:00,43.9,38.0,30.07,NE,53,0.0,2.0,79,0.00,,,0.00,weatherlink.com 1.10,2013-02-17 08:49:00,
2013-02-17 10:04:00,44.3,38.0,30.07,ENE,65,1.0,2.0,77,0.00,,,0.00,weatherlink.com 1.10,2013-02-17 09:04:00,
2013-02-17 10:19:00,44.2,37.0,30.07,East,88,2.0,3.0,77,0.00,,,0.00,weatherlink.com 1.10,2013-02-17 09:19:00,
2013-02-17 10:34:00,44.1,38.0,30.07,ENE,68,0.0,2.0,78,0.00,,,0.00,weatherlink.com 1.10,2013-02-17 09:34:00,
2013-02-17 10:49:00,44.9,38.0,30.07,ENE,63,0.0,2.0,77,0.00,,,0.00,weatherlink.com 1.10,2013-02-17 09:49:00,
2013-02-17 11:04:00,45.7,39.0,30.07,ENE,65,0.0,2.0,77,0.00,,,0.00,weatherlink.com 1.10,2013-02-17 10:04:00,
2013-02-17 11:19:00,46.2,39.0,30.07,ENE,64,1.0,2.0,77,0.00,,,0.00,weatherlink.com 1.10,2013-02-17 10:19:00,
2013-02-17 11:34:00,47.2,40.0,30.06,ENE,72,0.0,1.0,77,0.00,,,0.00,weatherlink.com 1.10,2013-02-17 10:34:00,
2013-02-17 11:49:00,48.7,42.0,30.06,SSE,166,0.0,0.0,78,0.00,,,0.00,weatherlink.com 1.10,2013-02-17 10:49:00,
2013-02-17 12:04:00,49.9,42.0,30.05,South,174,0.0,0.0,75,0.00,,,0.00,weatherlink.com 1.10,2013-02-17 11:04:00,
2013-02-17 12:20:00,50.4,43.0,30.05,South,175,0.0,0.0,75,0.00,,,0.00,weatherlink.com 1.10,2013-02-17 11:20:00,
2013-02-17 12:35:00,50.7,43.0,30.04,South,176,0.0,0.0,74,0.00,,,0.00,weatherlink.com 1.10,2013-02-17 11:35:00,
2013-02-17 12:50:00,51.0,43.0,30.04,South,179,0.0,0.0,75,0.00,,,0.00,weatherlink.com 1.10,2013-02-17 11:50:00,
2013-02-17 13:05:00,51.0,42.0,30.03,South,176,0.0,0.0,72,0.00,,,0.00,weatherlink.com 1.10,2013-02-17 12:05:00,
2013-02-17 13:21:00,50.5,42.0,30.02,South,175,0.0,0.0,73,0.00,,,0.00,weatherlink.com 1.10,2013-02-17 12:21:00,
2013-02-17 13:35:00,50.5,43.0,30.02,South,174,0.0,0.0,74,0.00,,,0.00,weatherlink.com 1.10,2013-02-17 12:35:00,
2013-02-17 13:50:00,51.8,43.0,30.01,South,180,0.0,0.0,73,0.00,,,0.00,weatherlink.com 1.10,2013-02-17 12:50:00,
2013-02-17 14:05:00,52.0,43.0,30.01,South,179,0.0,0.0,71,0.00,,,0.00,weatherlink.com 1.10,2013-02-17 13:05:00,
2013-02-17 14:20:00,51.6,43.0,30.01,South,176,0.0,0.0,72,0.00,,,0.00,weatherlink.com 1.10,2013-02-17 13:20:00,
2013-02-17 14:35:00,51.1,43.0,30.01,South,174,0.0,1.0,73,0.00,,,0.00,weatherlink.com 1.10,2013-02-17 13:35:00,
2013-02-17 14:50:00,48.4,43.0,30.01,South,174,0.0,1.0,82,0.03,,,0.03,weatherlink.com 1.10,2013-02-17 13:50:00,
2013-02-17 15:05:00,46.9,42.0,30.02,South,172,0.0,0.0,83,0.04,,,0.04,weatherlink.com 1.10,2013-02-17 14:05:00,
2013-02-17 15:20:00,46.1,42.0,30.02,South,174,0.0,0.0,86,0.06,,,0.06,weatherlink.com 1.10,2013-02-17 14:20:00,
2013-02-17 15:35:00,45.1,42.0,30.01,NE,48,0.0,1.0,87,0.07,,,0.07,weatherlink.com 1.10,2013-02-17 14:35:00,
2013-02-17 15:50:00,44.8,42.0,30.01,ESE,104,0.0,3.0,88,0.06,,,0.09,weatherlink.com 1.10,2013-02-17 14:50:00,
2013-02-17 16:05:00,45.1,42.0,30.00,NNE,26,0.0,2.0,88,0.06,,,0.09,weatherlink.com 1.10,2013-02-17 15:05:00,
2013-02-17 16:20:00,44.8,42.0,30.00,NE,44,0.0,1.0,89,0.06,,,0.12,weatherlink.com 1.10,2013-02-17 15:20:00,
2013-02-17 16:35:00,44.9,42.0,30.00,NE,48,0.0,2.0,88,0.05,,,0.12,weatherlink.com 1.10,2013-02-17 15:35:00,
2013-02-17 16:50:00,44.9,42.0,30.00,ENE,74,0.0,0.0,90,0.03,,,0.12,weatherlink.com 1.10,2013-02-17 15:50:00,
2013-02-17 17:05:00,44.9,42.0,30.00,ENE,68,0.0,0.0,89,0.02,,,0.12,weatherlink.com 1.10,2013-02-17 16:05:00,
2013-02-17 17:20:00,44.4,41.0,30.01,NE,41,0.0,0.0,89,0.00,,,0.12,weatherlink.com 1.10,2013-02-17 16:20:00,
2013-02-17 17:35:00,44.1,41.0,30.01,NE,41,0.0,0.0,90,0.00,,,0.12,weatherlink.com 1.10,2013-02-17 16:35:00,
2013-02-17 17:50:00,43.7,41.0,30.01,NE,40,0.0,0.0,90,0.00,,,0.12,weatherlink.com 1.10,2013-02-17 16:50:00,
2013-02-17 18:05:00,43.7,41.0,30.01,NE,41,0.0,0.0,90,0.00,,,0.12,weatherlink.com 1.10,2013-02-17 17:05:00,
2013-02-17 18:20:00,44.1,42.0,30.01,NE,56,0.0,0.0,91,0.00,,,0.12,weatherlink.com 1.10,2013-02-17 17:20:00,
2013-02-17 18:35:00,43.9,41.0,30.02,East,84,0.0,0.0,90,0.00,,,0.12,weatherlink.com 1.10,2013-02-17 17:35:00,
2013-02-17 18:50:00,44.0,41.0,30.02,ESE,108,0.0,0.0,90,0.00,,,0.12,weatherlink.com 1.10,2013-02-17 17:50:00,
2013-02-17 19:05:00,43.6,41.0,30.02,East,79,0.0,0.0,89,0.00,,,0.12,weatherlink.com 1.10,2013-02-17 18:05:00,
2013-02-17 19:20:00,43.8,41.0,30.03,ENE,75,2.0,3.0,88,0.00,,,0.12,weatherlink.com 1.10,2013-02-17 18:20:00,
2013-02-17 19:35:00,44.4,41.0,30.03,East,84,3.0,3.0,86,0.00,,,0.12,weatherlink.com 1.10,2013-02-17 18:35:00,
2013-02-17 19:50:00,44.7,41.0,30.02,ENE,77,0.0,3.0,85,0.00,,,0.12,weatherlink.com 1.10,2013-02-17 18:50:00,
2013-02-17 20:05:00,44.5,40.0,30.02,ENE,71,1.0,2.0,85,0.00,,,0.12,weatherlink.com 1.10,2013-02-17 19:05:00,
2013-02-17 20:20:00,44.3,40.0,30.02,ENE,65,2.0,3.0,84,0.00,,,0.12,weatherlink.com 1.10,2013-02-17 19:20:00,
2013-02-17 20:35:00,44.1,40.0,30.02,ENE,72,0.0,2.0,84,0.00,,,0.12,weatherlink.com 1.10,2013-02-17 19:35:00,
2013-02-17 20:50:00,43.8,39.0,30.03,ENE,68,0.0,1.0,84,0.00,,,0.12,weatherlink.com 1.10,2013-02-17 19:50:00,
2013-02-17 21:05:00,44.0,39.0,30.03,ENE,71,1.0,2.0,83,0.00,,,0.12,weatherlink.com 1.10,2013-02-17 20:05:00,
2013-02-17 21:20:00,44.0,39.0,30.03,ENE,67,2.0,3.0,83,0.00,,,0.12,weatherlink.com 1.10,2013-02-17 20:20:00,
2013-02-17 21:35:00,44.1,39.0,30.03,East,82,3.0,3.0,82,0.00,,,0.12,weatherlink.com 1.10,2013-02-17 20:35:00,
2013-02-17 21:50:00,43.9,39.0,30.03,ENE,60,0.0,2.0,83,0.00,,,0.12,weatherlink.com 1.10,2013-02-17 20:50:00,
2013-02-17 22:05:00,43.7,39.0,30.03,ENE,63,0.0,1.0,84,0.00,,,0.12,weatherlink.com 1.10,2013-02-17 21:05:00,
2013-02-17 22:20:00,43.3,39.0,30.03,ENE,63,0.0,0.0,85,0.00,,,0.12,weatherlink.com 1.10,2013-02-17 21:20:00,
2013-02-17 22:35:00,42.9,39.0,30.03,ENE,63,0.0,0.0,86,0.00,,,0.12,weatherlink.com 1.10,2013-02-17 21:35:00,
2013-02-17 22:50:00,42.5,39.0,30.03,ENE,63,0.0,0.0,86,0.00,,,0.12,weatherlink.com 1.10,2013-02-17 21:50:00,
2013-02-17 23:05:00,41.8,38.0,30.03,ENE,63,0.0,0.0,87,0.00,,,0.12,weatherlink.com 1.10,2013-02-17 22:05:00,
2013-02-17 23:20:00,41.1,38.0,30.02,ENE,63,0.0,0.0,88,0.00,,,0.12,weatherlink.com 1.10,2013-02-17 22:20:00,
2013-02-17 23:35:00,40.5,38.0,30.02,ENE,63,0.0,0.0,89,0.00,,,0.12,weatherlink.com 1.10,2013-02-17 22:35:00,
2013-02-17 23:50:00,39.7,37.0,30.02,ENE,63,0.0,0.0,90,0.00,,,0.12,weatherlink.com 1.10,2013-02-17 22:50:00,